TimeEST,TemperatureF,Dew PointF,Humidity,Sea Level PressureIn,VisibilityMPH,Wind Direction,Wind SpeedMPH,Gust SpeedMPH,PrecipitationIn,Events,Conditions,WindDirDegrees,DateUTC
12:15 AM,58.6,48.7,70,29.92,10.0,SW,4.6,-,N/A,,Overcast,230,2012-12-08 05:15:00
12:35 AM,59.0,49.1,70,29.92,10.0,SW,4.6,-,N/A,,Overcast,230,2012-12-08 05:35:00
12:55 AM,57.4,51.6,81,29.92,7.0,West,6.9,-,N/A,Rain,Rain,260,2012-12-08 05:55:00
1:15 AM,55.8,52.7,89,29.91,10.0,SW,3.5,-,N/A,,Light Drizzle,230,2012-12-08 06:15:00
1:35 AM,56.3,52.5,87,29.91,10.0,SW,3.5,-,N/A,,Overcast,220,2012-12-08 06:35:00
1:55 AM,56.7,52.2,85,29.91,10.0,SW,3.5,-,N/A,,Overcast,220,2012-12-08 06:55:00
2:15 AM,57.4,52.0,82,29.91,10.0,SW,5.8,-,N/A,,Overcast,220,2012-12-08 07:15:00
2:35 AM,57.4,52.0,82,29.92,10.0,SW,4.6,-,N/A,,Overcast,230,2012-12-08 07:35:00
2:55 AM,58.1,52.0,80,29.92,10.0,WSW,4.6,-,N/A,,Overcast,240,2012-12-08 07:55:00
3:15 AM,58.5,52.0,79,29.92,10.0,WSW,4.6,-,N/A,,Overcast,240,2012-12-08 08:15:00
3:35 AM,58.5,52.0,79,29.91,10.0,SW,5.8,-,N/A,,Overcast,230,2012-12-08 08:35:00
3:55 AM,58.5,51.8,79,29.91,10.0,SW,5.8,-,N/A,,Overcast,220,2012-12-08 08:55:00
4:15 AM,59.0,51.8,77,29.91,10.0,SW,5.8,-,N/A,,Overcast,230,2012-12-08 09:15:00
4:35 AM,58.8,51.8,77,29.91,10.0,SW,6.9,-,N/A,,Overcast,230,2012-12-08 09:35:00
4:55 AM,58.5,52.0,79,29.91,10.0,SW,6.9,-,N/A,,Overcast,230,2012-12-08 09:55:00
5:15 AM,58.1,52.2,81,29.91,10.0,SW,6.9,-,N/A,,Overcast,220,2012-12-08 10:15:00
5:35 AM,57.7,52.2,82,29.91,10.0,SW,4.6,-,N/A,,Overcast,230,2012-12-08 10:35:00
5:55 AM,57.6,52.0,82,29.92,10.0,SW,4.6,-,N/A,,Overcast,220,2012-12-08 10:55:00
6:15 AM,57.6,51.8,81,29.91,10.0,SSW,5.8,-,N/A,,Mostly Cloudy,210,2012-12-08 11:15:00
6:35 AM,58.3,51.8,79,29.91,10.0,SSW,6.9,-,N/A,,Mostly Cloudy,210,2012-12-08 11:35:00
6:55 AM,58.6,51.8,78,29.92,10.0,SSW,6.9,-,N/A,,Overcast,210,2012-12-08 11:55:00
7:15 AM,58.5,51.8,79,29.92,10.0,SW,8.1,-,N/A,,Overcast,220,2012-12-08 12:15:00
7:35 AM,58.6,51.8,78,29.93,10.0,SW,8.1,-,N/A,,Overcast,220,2012-12-08 12:35:00
7:55 AM,58.1,51.4,78,29.93,10.0,SW,5.8,-,N/A,,Scattered Clouds,230,2012-12-08 12:55:00
8:15 AM,58.6,51.4,77,29.93,10.0,SW,5.8,-,N/A,,Overcast,220,2012-12-08 13:15:00
8:35 AM,59.0,51.4,76,29.93,10.0,SW,6.9,-,N/A,,Mostly Cloudy,230,2012-12-08 13:35:00
8:55 AM,59.2,51.6,76,29.94,10.0,SW,9.2,-,N/A,,Overcast,230,2012-12-08 13:55:00
9:15 AM,59.4,51.4,75,29.94,10.0,SW,8.1,-,N/A,,Overcast,220,2012-12-08 14:15:00
9:35 AM,60.1,51.6,74,29.94,10.0,SW,6.9,-,N/A,,Overcast,220,2012-12-08 14:35:00
9:55 AM,60.8,52.0,73,29.94,10.0,WSW,5.8,-,N/A,,Overcast,240,2012-12-08 14:55:00
10:15 AM,61.7,52.7,72,29.95,10.0,WSW,9.2,-,N/A,,Overcast,250,2012-12-08 15:15:00
10:35 AM,61.5,52.7,73,29.94,10.0,WSW,8.1,-,N/A,,Overcast,250,2012-12-08 15:35:00
10:55 AM,62.2,52.5,70,29.94,10.0,WSW,12.7,20.7,N/A,,Overcast,250,2012-12-08 15:55:00
11:15 AM,63.0,52.9,70,29.93,10.0,SW,8.1,-,N/A,,Overcast,230,2012-12-08 16:15:00
11:35 AM,64.4,52.9,66,29.93,10.0,SW,10.4,-,N/A,,Overcast,220,2012-12-08 16:35:00
11:55 AM,63.5,52.5,67,29.92,10.0,WSW,12.7,-,N/A,,Overcast,250,2012-12-08 16:55:00
12:15 PM,63.5,52.2,67,29.91,10.0,WSW,10.4,18.4,N/A,,Overcast,240,2012-12-08 17:15:00
12:35 PM,63.5,52.2,67,29.91,10.0,WSW,4.6,-,N/A,,Overcast,250,2012-12-08 17:35:00
12:55 PM,63.7,52.0,66,29.90,10.0,WSW,5.8,-,N/A,,Overcast,240,2012-12-08 17:55:00
1:15 PM,64.6,52.2,64,29.90,10.0,West,5.8,-,N/A,,Overcast,270,2012-12-08 18:15:00
1:35 PM,64.4,51.8,64,29.89,10.0,West,5.8,-,N/A,,Overcast,260,2012-12-08 18:35:00
1:55 PM,63.7,52.2,66,29.90,10.0,West,5.8,-,N/A,Rain,Rain,260,2012-12-08 18:55:00
2:15 PM,62.4,52.9,71,29.90,10.0,NW,6.9,-,N/A,Rain,Rain,310,2012-12-08 19:15:00
2:35 PM,58.5,55.6,90,29.92,4.0,WNW,6.9,-,N/A,Rain,Rain,300,2012-12-08 19:35:00
2:55 PM,58.1,55.9,93,29.92,7.0,West,4.6,-,N/A,Rain,Light Rain,270,2012-12-08 19:55:00
3:15 PM,58.1,56.3,94,29.93,10.0,West,3.5,-,N/A,,Light Drizzle,260,2012-12-08 20:15:00
3:35 PM,58.1,56.3,94,29.94,10.0,West,3.5,-,N/A,Rain,Rain,270,2012-12-08 20:35:00
3:55 PM,58.1,56.3,94,29.94,10.0,West,3.5,-,N/A,Rain,Rain,260,2012-12-08 20:55:00
4:15 PM,57.7,56.3,95,29.94,7.0,Calm,Calm,-,N/A,Rain,Light Rain,0,2012-12-08 21:15:00
4:35 PM,57.7,56.3,95,29.96,7.0,West,4.6,-,N/A,Rain,Light Rain,270,2012-12-08 21:35:00
4:55 PM,57.2,56.3,97,29.96,5.0,West,5.8,-,N/A,Rain,Rain,270,2012-12-08 21:55:00
5:15 PM,57.0,55.8,96,29.96,5.0,WSW,4.6,-,N/A,Rain,Rain,240,2012-12-08 22:15:00
5:35 PM,56.3,55.4,97,29.95,7.0,Calm,Calm,-,N/A,Rain,Rain,0,2012-12-08 22:35:00
5:55 PM,55.9,55.2,97,29.96,7.0,WSW,3.5,-,N/A,Rain,Light Rain,240,2012-12-08 22:55:00
6:15 PM,55.8,55.0,97,29.97,5.0,Calm,Calm,-,N/A,Rain,Light Rain,0,2012-12-08 23:15:00
6:35 PM,55.6,54.9,97,29.97,5.0,SW,3.5,-,N/A,Rain,Rain,220,2012-12-08 23:35:00
6:55 PM,55.2,54.5,97,29.99,3.0,SW,3.5,-,N/A,Rain,Heavy Rain,220,2012-12-08 23:55:00
7:15 PM,55.2,54.7,98,29.99,2.0,Calm,Calm,-,N/A,Rain,Rain,0,2012-12-09 00:15:00
7:35 PM,55.0,54.7,99,30.00,3.0,SW,4.6,-,N/A,Rain,Light Rain,220,2012-12-09 00:35:00
7:55 PM,55.0,54.7,99,30.00,5.0,South,3.5,-,N/A,Rain,Light Rain,190,2012-12-09 00:55:00
8:15 PM,54.9,54.5,99,30.00,7.0,Calm,Calm,-,N/A,Rain,Light Rain,0,2012-12-09 01:15:00
8:55 PM,55.0,54.5,98,30.00,7.0,Calm,Calm,-,N/A,,Overcast,0,2012-12-09 01:55:00
9:15 PM,55.0,54.7,99,30.00,7.0,Calm,Calm,-,N/A,,Light Drizzle,0,2012-12-09 02:15:00
9:35 PM,54.7,54.5,99,30.00,5.0,Calm,Calm,-,N/A,,Drizzle,0,2012-12-09 02:35:00
9:55 PM,54.9,54.7,99,30.00,4.0,Calm,Calm,-,N/A,,Light Drizzle,0,2012-12-09 02:55:00
10:15 PM,54.7,54.5,99,29.99,4.0,Calm,Calm,-,N/A,Rain,Rain,0,2012-12-09 03:15:00
10:55 PM,54.5,54.5,100,29.99,4.0,ESE,3.5,-,N/A,,Overcast,120,2012-12-09 03:55:00
11:35 PM,54.7,54.5,99,30.01,2.0,Calm,Calm,-,N/A,Rain,Heavy Rain,0,2012-12-09 04:35:00
11:55 PM,54.5,54.5,100,30.00,1.8,NNE,4.6,-,N/A,Rain,Rain,30,2012-12-09 04:55:00